Weather History for Mackinac Island, MI

Change the Weather History Date:

Thursday, March 7, 2013

  Actual Average Record
Temperature  
Mean Temperature 26 °F -  
Max Temperature 30 °F 26 °F 53 °F (2012)
Min Temperature 22 °F 13 °F -13 °F (1999)
Degree Days  
Heating Degree Days 39    
Moisture  
Dew Point 19 °F    
Average Humidity 76    
Maximum Humidity 86    
Minimum Humidity 64    
Precipitation  
Precipitation 0.00 in - - ()
Sea Level Pressure  
Sea Level Pressure 30.32 in    
Wind  
Wind Speed 8 mph (WNW)    
Max Wind Speed 10 mph    
Max Gust Speed 17 mph    
Visibility 10 miles    
Events Snow    
Averages and records for this station are not official NWS values.
T = Trace of Precipitation, MM = Missing Value Source: NWS Daily Summary

Daily Weather History Graph

Daily Weather History Graph

Search for Another Location

Airport:

Trip Planner

Search our weather history database for the weather conditions in past years. The results will help you decide how hot, cold, wet, or windy it might be!

Date:

Astronomy

Mar. 07, 2013 Rise Set
Actual Time 7:05 AM EST 6:33 PM EST
Civil Twilight 6:36 AM EST 7:03 PM EST
Nautical Twilight 6:01 AM EST 7:38 PM EST
Astronomical Twilight 5:26 AM EST 8:13 PM EST
Moon 4:16 AM EST (3/7) 2:10 PM EST (3/7)
Length of Visible Light 12h 27m
Length of Day
11h 28m
Waning Crescent, 20% of the Moon is Illuminated
Mar 7
Waning Crescent
Mar 11
New
Mar 19
First Quarter
Mar 27
Full
Apr 3
Last Quarter

Hourly Weather History & Observations

Time (EST) Temp. Windchill Dew Point Humidity Pressure Visibility Wind Dir Wind Speed Gust Speed Precip Events Conditions
12:13 AM 26.1 °F 17.6 °F 22.3 °F 86% 30.23 in 5.0 mi NNW 8.1 mph - N/A Snow Light Snow
12:33 AM 25.3 °F 16.0 °F 21.7 °F 86% 30.23 in 3.0 mi NW 9.2 mph - N/A Snow Light Snow
12:53 AM 25.2 °F 16.5 °F 20.8 °F 84% 30.23 in 5.0 mi NNW 8.1 mph 17.3 mph N/A Snow Light Snow
1:13 AM 24.8 °F 15.3 °F 20.7 °F 84% 30.23 in 10.0 mi NW 9.2 mph - N/A   Overcast
1:33 AM 24.8 °F 16.1 °F 20.3 °F 83% 30.24 in 10.0 mi NW 8.1 mph - N/A   Overcast
1:53 AM 24.6 °F 15.1 °F 19.9 °F 82% 30.25 in 10.0 mi NW 9.2 mph - N/A   Overcast
2:13 AM 24.4 °F 15.6 °F 19.9 °F 83% 30.25 in 10.0 mi NW 8.1 mph - N/A   Overcast
2:33 AM 24.3 °F 14.6 °F 19.4 °F 82% 30.25 in 10.0 mi NW 9.2 mph - N/A   Overcast
2:53 AM 24.3 °F 16.3 °F 19.4 °F 82% 30.25 in 10.0 mi NW 6.9 mph - N/A   Overcast
3:13 AM 23.9 °F 14.2 °F 19.2 °F 82% 30.25 in 10.0 mi NW 9.2 mph - N/A   Overcast
3:33 AM 23.7 °F 14.7 °F 18.9 °F 82% 30.25 in 10.0 mi NW 8.1 mph - N/A   Overcast
3:53 AM 23.7 °F 14.7 °F 18.9 °F 82% 30.26 in 10.0 mi NW 8.1 mph - N/A   Overcast
4:13 AM 23.5 °F 14.5 °F 18.9 °F 82% 30.26 in 10.0 mi WNW 8.1 mph - N/A   Overcast
4:33 AM 23.4 °F 14.3 °F 18.5 °F 82% 30.26 in 10.0 mi WNW 8.1 mph - N/A   Overcast
4:53 AM 23.0 °F 14.7 °F 18.5 °F 83% 30.26 in 10.0 mi West 6.9 mph - N/A   Overcast
5:13 AM 22.3 °F 13.9 °F 18.3 °F 85% 30.26 in 10.0 mi West 6.9 mph - N/A   Overcast
5:33 AM 22.1 °F 12.8 °F 18.1 °F 85% 30.27 in 10.0 mi WNW 8.1 mph - N/A   Overcast
5:53 AM 22.1 °F 13.7 °F 18.3 °F 85% 30.27 in 10.0 mi WNW 6.9 mph - N/A   Overcast
6:13 AM 22.3 °F 13.9 °F 18.1 °F 84% 30.27 in 10.0 mi WNW 6.9 mph - N/A   Overcast
6:33 AM 22.5 °F 15.1 °F 18.1 °F 83% 30.28 in 10.0 mi NW 5.8 mph - N/A   Overcast
6:53 AM 22.8 °F 15.5 °F 18.1 °F 82% 30.28 in 10.0 mi WNW 5.8 mph - N/A   Overcast
7:13 AM 23.0 °F 15.8 °F 18.0 °F 81% 30.29 in 10.0 mi WNW 5.8 mph - N/A   Overcast
7:33 AM 23.0 °F 13.9 °F 17.8 °F 80% 30.30 in 10.0 mi WNW 8.1 mph - N/A   Overcast
7:53 AM 23.4 °F 13.5 °F 17.6 °F 79% 30.30 in 10.0 mi West 9.2 mph - N/A   Overcast
8:13 AM 23.5 °F 15.4 °F 17.6 °F 78% 30.31 in 10.0 mi WNW 6.9 mph - N/A   Overcast
8:33 AM 23.7 °F 15.6 °F 17.1 °F 76% 30.31 in 10.0 mi WNW 6.9 mph - N/A   Overcast
8:53 AM 23.9 °F 14.2 °F 16.9 °F 75% 30.32 in 10.0 mi West 9.2 mph - N/A   Overcast
9:13 AM 24.3 °F 13.9 °F 16.9 °F 73% 30.32 in 10.0 mi WNW 10.4 mph - N/A   Overcast
9:33 AM 24.3 °F 14.6 °F 17.4 °F 75% 30.33 in 10.0 mi WNW 9.2 mph - N/A   Overcast
9:53 AM 24.4 °F 15.6 °F 17.6 °F 75% 30.33 in 10.0 mi WNW 8.1 mph - N/A   Overcast
10:13 AM 24.8 °F 14.6 °F 17.6 °F 74% 30.33 in 10.0 mi WNW 10.4 mph 16.1 mph N/A   Overcast
10:33 AM 25.5 °F 16.2 °F 17.8 °F 72% 30.33 in 10.0 mi WNW 9.2 mph - N/A   Overcast
10:53 AM 25.7 °F 17.1 °F 18.3 °F 74% 30.33 in 10.0 mi WNW 8.1 mph - N/A   Overcast
11:13 AM 26.6 °F 18.2 °F 18.7 °F 72% 30.33 in 10.0 mi NW 8.1 mph - N/A   Overcast
11:34 AM 27.3 °F 19.1 °F 18.9 °F 70% 30.33 in 10.0 mi NW 8.1 mph - N/A   Overcast
11:53 AM 28.2 °F 20.2 °F 19.0 °F 68% 30.33 in 10.0 mi WNW 8.1 mph - N/A   Overcast
12:13 PM 28.2 °F 21.0 °F 18.9 °F 68% 30.34 in 10.0 mi NW 6.9 mph - N/A   Overcast
12:33 PM 28.6 °F 19.9 °F 19.0 °F 67% 30.34 in 10.0 mi WNW 9.2 mph - N/A   Overcast
12:53 PM 29.5 °F 21.8 °F 19.4 °F 66% 30.34 in 10.0 mi WNW 8.1 mph - N/A   Overcast
1:13 PM 29.5 °F 22.5 °F 18.9 °F 65% 30.33 in 10.0 mi WNW 6.9 mph - N/A   Overcast
1:33 PM 29.3 °F 21.5 °F 18.7 °F 65% 30.33 in 10.0 mi NW 8.1 mph - N/A   Overcast
1:53 PM 29.8 °F 22.2 °F 19.2 °F 65% 30.33 in 10.0 mi NW 8.1 mph - N/A   Overcast
2:13 PM 30.0 °F 23.2 °F 19.2 °F 64% 30.33 in 10.0 mi WNW 6.9 mph - N/A   Overcast
2:33 PM 30.0 °F 25.2 °F 19.4 °F 65% 30.33 in 10.0 mi NW 4.6 mph - N/A   Overcast
2:53 PM 30.6 °F 27.1 °F 19.6 °F 64% 30.34 in 10.0 mi NNW 3.5 mph - N/A   Overcast
3:13 PM 29.1 °F 22.1 °F 20.1 °F 69% 30.34 in 10.0 mi WSW 6.9 mph - N/A   Overcast
3:33 PM 29.3 °F 20.2 °F 20.3 °F 69% 30.34 in 10.0 mi West 10.4 mph - N/A   Overcast
3:53 PM 29.1 °F 22.1 °F 19.9 °F 69% 30.35 in 10.0 mi West 6.9 mph - N/A   Overcast
4:13 PM 29.1 °F 20.0 °F 20.1 °F 69% 30.35 in 10.0 mi West 10.4 mph - N/A   Overcast
4:33 PM 29.3 °F 20.8 °F 20.1 °F 69% 30.35 in 10.0 mi West 9.2 mph - N/A   Overcast
4:53 PM 29.3 °F 20.8 °F 20.3 °F 69% 30.35 in 10.0 mi West 9.2 mph - N/A   Overcast
5:13 PM 29.1 °F 20.6 °F 20.7 °F 71% 30.35 in 10.0 mi West 9.2 mph - N/A   Overcast
5:33 PM 28.9 °F 20.4 °F 20.3 °F 70% 30.36 in 10.0 mi West 9.2 mph - N/A   Overcast
5:53 PM 28.9 °F 21.9 °F 20.3 °F 70% 30.37 in 10.0 mi West 6.9 mph - N/A   Overcast
6:13 PM 28.8 °F 21.7 °F 20.7 °F 72% 30.37 in 10.0 mi West 6.9 mph - N/A   Overcast
6:33 PM 28.8 °F 22.6 °F 21.0 °F 73% 30.38 in 10.0 mi West 5.8 mph - N/A   Overcast
6:53 PM 28.4 °F 21.2 °F 21.2 °F 74% 30.38 in 10.0 mi West 6.9 mph - N/A   Overcast
8:33 PM 28.2 °F 23.1 °F 21.6 °F 76% 30.40 in 10.0 mi NNW 4.6 mph - N/A   Overcast
8:53 PM 27.3 °F 22.0 °F 21.2 °F 78% 30.40 in 10.0 mi NNW 4.6 mph - N/A   Mostly Cloudy
9:13 PM 26.4 °F 19.8 °F 21.4 °F 81% 30.40 in 10.0 mi NW 5.8 mph - N/A   Clear
9:33 PM 26.6 °F 19.1 °F 20.8 °F 79% 30.40 in 10.0 mi WNW 6.9 mph - N/A   Clear
9:53 PM 26.1 °F 18.4 °F 20.5 °F 79% 30.40 in 10.0 mi NW 6.9 mph - N/A   Clear
10:13 PM 25.5 °F 18.7 °F 20.3 °F 81% 30.40 in 10.0 mi WNW 5.8 mph - N/A   Clear
10:34 PM 25.3 °F 18.5 °F 20.3 °F 81% 30.41 in 10.0 mi WNW 5.8 mph - N/A   Clear
10:53 PM 25.2 °F 18.3 °F 20.3 °F 82% 30.41 in 10.0 mi WNW 5.8 mph - N/A   Clear
11:13 PM 25.2 °F 18.3 °F 20.8 °F 84% 30.41 in 10.0 mi WNW 5.8 mph - N/A   Mostly Cloudy
11:34 PM 25.9 °F 19.2 °F 21.0 °F 82% 30.41 in 10.0 mi WNW 5.8 mph - N/A   Overcast
11:53 PM 25.9 °F 20.3 °F 21.0 °F 82% 30.40 in 10.0 mi WNW 4.6 mph - N/A   Overcast